Weather History for Blytheville Muni Airport, AR

Change the Weather History Date:

Monday, March 11, 2013

  Actual Average Record
Temperature  
Mean Temperature 42 °F -  
Max Temperature 48 °F 59 °F 80 °F (1967)
Min Temperature 32 °F 40 °F 20 °F (1948)
Degree Days  
Heating Degree Days 24    
Moisture  
Dew Point 34 °F    
Average Humidity 75    
Maximum Humidity 89    
Minimum Humidity 63    
Precipitation  
Precipitation 0.00 in - - ()
Sea Level Pressure  
Sea Level Pressure 29.91 in    
Wind  
Wind Speed 11 mph (WNW)    
Max Wind Speed 18 mph    
Max Gust Speed 23 mph    
Visibility 10 miles    
Events      
Averages and records for this station are not official NWS values.
T = Trace of Precipitation, MM = Missing Value Source: NWS Daily Summary

Daily Weather History Graph

Daily Weather History Graph

Search for Another Location

Airport:

Trip Planner

Search our weather history database for the weather conditions in past years. The results will help you decide how hot, cold, wet, or windy it might be!

Date:

Astronomy

Mar. 11, 2013 Rise Set
Actual Time 7:15 AM CDT 7:03 PM CDT
Civil Twilight 6:49 AM CDT 7:29 PM CDT
Nautical Twilight 6:20 AM CDT 7:58 PM CDT
Astronomical Twilight 5:50 AM CDT 8:28 PM CDT
Moon 6:50 AM CDT (3/11) 7:13 PM CDT (3/11)
Length of Visible Light 12h 39m
Length of Day
11h 48m
Waning Crescent, 0% of the Moon is Illuminated
Mar 11
Waning Crescent
Mar 11
New
Mar 19
First Quarter
Mar 27
Full
Apr 2
Last Quarter

Hourly Weather History & Observations

Time (CDT) Temp. Windchill Dew Point Humidity Pressure Visibility Wind Dir Wind Speed Gust Speed Precip Events Conditions
12:01 AM 50.0 °F - 42.8 °F 76% 29.82 in 10.0 mi WNW 13.8 mph - N/A   Overcast
12:53 AM 48.9 °F - 44.1 °F 83% 29.83 in 10.0 mi West 9.2 mph - N/A   Overcast
1:53 AM 46.9 °F - 41.0 °F 80% 29.84 in 10.0 mi WNW 10.4 mph - N/A   Overcast
2:15 AM 46.4 °F 45.2 °F 41.0 °F 81% 29.84 in 10.0 mi WSW 3.5 mph - N/A   Scattered Clouds
2:53 AM 45.0 °F 41.8 °F 39.0 °F 80% 29.80 in 10.0 mi West 5.8 mph - N/A   Partly Cloudy
3:53 AM 44.1 °F 38.1 °F 37.9 °F 79% 29.85 in 10.0 mi West 11.5 mph - N/A   Mostly Cloudy
4:53 AM 43.0 °F 37.2 °F 37.0 °F 80% 29.84 in 10.0 mi West 10.4 mph - N/A   Overcast
5:25 AM 42.8 °F 38.0 °F 37.4 °F 81% 29.83 in 10.0 mi West 8.1 mph - N/A   Overcast
5:53 AM 42.1 °F 34.9 °F 36.0 °F 79% 29.84 in 10.0 mi West 13.8 mph - N/A   Overcast
6:53 AM 39.9 °F 32.1 °F 35.1 °F 83% 29.87 in 10.0 mi West 13.8 mph 20.7 mph N/A   Overcast
7:53 AM 39.0 °F 30.6 °F 33.1 °F 79% 29.87 in 10.0 mi WNW 15.0 mph - N/A   Overcast
8:53 AM 37.9 °F 29.2 °F 32.0 °F 79% 29.91 in 10.0 mi West 15.0 mph - N/A   Overcast
9:17 AM 37.4 °F 28.5 °F 30.2 °F 75% 29.92 in 10.0 mi WNW 15.0 mph - N/A   Overcast
9:53 AM 39.0 °F 30.3 °F 32.0 °F 76% 29.91 in 10.0 mi WNW 16.1 mph - N/A   Overcast
10:45 AM 39.2 °F 29.8 °F 30.2 °F 70% 29.92 in 10.0 mi West 18.4 mph 23.0 mph N/A   Overcast
10:53 AM 39.0 °F 31.0 °F 30.9 °F 73% 29.93 in 10.0 mi WNW 13.8 mph - N/A   Overcast
11:53 AM 39.0 °F 30.6 °F 30.9 °F 73% 29.94 in 10.0 mi West 15.0 mph - N/A   Overcast
12:53 PM 39.0 °F 31.8 °F 30.9 °F 73% 29.94 in 10.0 mi West 11.5 mph 18.4 mph N/A   Overcast
1:53 PM 41.0 °F 33.5 °F 32.0 °F 70% 29.93 in 10.0 mi West 13.8 mph - N/A   Overcast
2:34 PM 41.0 °F 33.9 °F 30.2 °F 65% 29.92 in 10.0 mi West 12.7 mph 19.6 mph N/A   Mostly Cloudy
2:53 PM 42.1 °F 34.5 °F 30.9 °F 65% 29.92 in 10.0 mi WNW 15.0 mph - N/A   Overcast
3:18 PM 42.8 °F 35.8 °F 32.0 °F 66% 29.91 in 10.0 mi WNW 13.8 mph - N/A   Overcast
3:36 PM 42.8 °F 36.2 °F 32.0 °F 66% 29.91 in 10.0 mi West 12.7 mph - N/A   Overcast
3:53 PM 45.0 °F 38.2 °F 33.1 °F 63% 29.92 in 10.0 mi West 15.0 mph - N/A   Overcast
4:53 PM 43.0 °F 36.8 °F 32.0 °F 65% 29.94 in 10.0 mi WNW 11.5 mph - N/A   Overcast
5:53 PM 42.1 °F 36.1 °F 30.9 °F 65% 29.96 in 10.0 mi West 10.4 mph - N/A   Overcast
6:53 PM 42.1 °F 37.7 °F 32.0 °F 67% 29.98 in 10.0 mi WNW 6.9 mph - N/A   Mostly Cloudy
7:53 PM 36.0 °F 31.1 °F 30.9 °F 82% 30.00 in 10.0 mi NNW 5.8 mph - N/A   Clear
8:53 PM 34.0 °F 28.8 °F 30.0 °F 85% 30.02 in 10.0 mi North 5.8 mph - N/A   Clear
9:53 PM 33.1 °F 27.7 °F 30.0 °F 89% 30.04 in 10.0 mi North 5.8 mph - N/A   Clear
10:53 PM 34.0 °F 31.0 °F 28.9 °F 82% 30.05 in 10.0 mi North 3.5 mph - N/A   Clear
11:53 PM 32.0 °F 26.4 °F 28.0 °F 85% 30.05 in 10.0 mi North 5.8 mph - N/A   Clear